sat.trackr.live / text

‹ back to catalog

STARLINK-30129

NORAD 56689 · 2023-067B

PAYLOAD ACTIVE UNKNOWN

§ Identity

Operator
Country
US
Launch date
2023-05-19
Launch site
AFETR
Launch vehicle
Mass (kg)
RCS (m²)

Purposes: comms

External: N2YO · Heavens-Above · Gunter

§ Orbital elements

Epoch: 2026-05-24T21:13:56.773632Z

Period
94.32 min
Inclination
43.0001°
Eccentricity
0.0001263
Mean motion
15.26745947 rev/d
Perigee alt
484.7 km
Apogee alt
486.4 km
Semi-major
6,863.7 km
B*
5.0008e-5
RAAN
210.8927°
Arg perigee
276.4239°
Mean anomaly
83.6469°
Rev number
16,723

§ Raw data

STARLINK-301291 56689U 23067B   26144.88468488  .00001082  00000+0  50008-4 0  99902 56689  43.0001 210.8927 0001263 276.4239  83.6469 15.26745947167233

JSON: /api/v1/satellites/56689 · /tle

For live sub-satellite position, see the globe view (requires WebGL).

§ Visibility from observer

Set your observer location to see the next 7 days of passes ≥ 10°. The values pass through the URL so the page stays shareable.

No JS? Fill the form by hand. The geolocation button needs JavaScript.